Home   Weather   Titisee-Neustadt   Past weeks

Flag for Germany Past Weather in Titisee-Neustadt, Baden-Württemberg, Germany — Yesterday and Last 2 Weeks

Now
55 °F

Overcast.


Feels Like: 55 °F
Forecast: 31 / 51 °F
Wind: 3 mph from Northwest

Location: Freiburg

Current Time: May 1, 2017 at 2:49:11 am

Latest Report: May 1, 2017 at 1:00 am


Visibility: 44 mi

Pressure: 29.68 "Hg (26.93 "Hg at 813m altitude)

Humidity: 49%

Dew Point: 36 °F

Location of Titisee-NeustadtLocation

Past Weather in Titisee-Neustadt — Graph

°F

Titisee-Neustadt Temperature Yesterday

Maximum temperature yesterday: 69 °F (at 6:00 pm)
Minimum temperature yesterday: 33 °F (at 6:00 am)
Average temperature yesterday: 54 °F

High & Low Weather Summary for the Past Weeks

 TemperatureHumidityPressure
High69 °F (Apr 30, 6:00 pm)100% (Apr 18, 3:00 am)30.59 "Hg (Apr 18, 3:00 am)
Low27 °F (Apr 21, 6:00 am)21% (Apr 21, 7:00 pm)29.65 "Hg (Apr 30, 7:00 pm)
Average45 °F71%30.14 "Hg
* Reported Apr 16 1:00 am — May 1 1:00 am, Titisee-Neustadt, Weather by CustomWeather, © 2017

Note: Actual official high and low records may vary slightly from our data, if they occured in-between our weather recording intervals... More about our weather records

Advertising

Titisee-Neustadt Weather History for the Previous 24 Hours

Scroll right to see more
 ConditionsComfort  
Time TempWeatherWind HumidityBarometerVisibility
1:00 am
Mon, May 1
55 °FOvercast.3 mph49%29.68 "Hg43 mi
12:00 am62 °FOvercast.3 mph34%29.66 "Hg43 mi
10:00 pm
Sun, Apr 30
62 °FOvercast.6 mph31%29.67 "Hg43 mi
9:00 pm64 °FOvercast.5 mph31%29.66 "Hg43 mi
7:00 pm68 °FOvercast.2 mph34%29.65 "Hg43 mi
6:00 pm69 °FOvercast.3 mph37%29.67 "Hg43 mi
4:00 pm67 °FPassing clouds.3 mph35%29.73 "Hg34 mi
3:00 pm65 °FPassing clouds.2 mph37%29.76 "Hg31 mi
1:00 pm62 °FSunny.3 mph40%29.82 "Hg25 mi
12:00 pm59 °FSunny.2 mph44%29.85 "Hg34 mi
10:00 am52 °FSunny.1 mph51%29.91 "Hg34 mi
9:00 am48 °FSunny.1 mph56%29.93 "Hg34 mi
7:00 am33 °FSunny.No wind89%29.97 "Hg19 mi
6:00 am33 °FPassing clouds.1 mph89%29.98 "Hg25 mi
4:00 am38 °FClear.3 mph76%29.97 "Hg31 mi
3:00 am39 °FClear.2 mph71%29.97 "Hg31 mi
Weather by CustomWeather, © 2017

See weather overviewHow to use our weather pages